Weather Roundup
Issued by NWS

Home | Current Version | Previous Version | Text Only | Print | Product List | Glossary On
Versions: 1 2 3 4 5 6 7 8 9 10 11 12 13 14 15 16 17 18 19 20 21 22 23 24 25 26 27 28 29 30 31 32 33 34 35 36 37 38 39 40 41 42 43 44 45 46 47 48 49 50
000
NZUS93 KARX 210659
HRRWXR

CURRENT HOURLY OBSERVATIONS ACROSS
MUCH OF THE UPPER MISSISSIPPI VALLEY
NATIONAL WEATHER SERVICE LA CROSSE WI
100 AM CST SUN DEC 21 2014


...SOUTHEAST MINNESOTA...


CITY           SKY/WX    TMP DP  RH WIND       PRES   REMARKS
ROCHESTER      CLOUDY    30  29  96 S12       30.06F FOG     WCI  20
ROCHESTER/MAYO CLOUDY    31  30  95 SE7       30.07F WCI  25
WINONA         CLOUDY    34  32  93 SE7       30.12F FOG     WCI  28
AUSTIN         FOG       30  30 100 S8        30.06S VSB 1/2 WCI  23
ALBERT LEA     CLOUDY    32  32 100 S10       30.04S FOG     WCI  24
DODGE CENTER   CLOUDY    30  30 100 S10       30.05F FOG     WCI  21
PRESTON        CLOUDY    30  29  97 S10G17    30.08F FOG     WCI  21
OWATONNA       CLOUDY    32  30  93 S10       30.04F FOG     WCI  24
FARIBAULT      CLOUDY    32  30  93 S8        30.05S FOG     WCI  25
$$

...ELSEWHERE IN MINNESOTA...


CITY           SKY/WX    TMP DP  RH WIND       PRES   REMARKS
MINNEAPOLIS    CLOUDY    31  27  85 SE9       30.06F WCI  23
INTNL FALLS    CLOUDY    28  26  92 VRB7      29.94S WCI  21
DULUTH         CLOUDY    30  25  81 S12       30.00F WCI  20
RED WING       CLOUDY    34  28  80 SE7       30.08F WCI  28
REDWOOD FALLS  CLOUDY    32  30  92 S13       29.98F WCI  22
MANKATO        CLOUDY    32  27  80 S12       30.02F WCI  23
WORTHINGTON    CLOUDY    30  28  93 S14       29.96F VSB 1   WCI  20
FAIRMONT       CLOUDY    32  28  86 S13       30.00F WCI  22
$$

...SOUTHWEST WISCONSIN...


CITY           SKY/WX    TMP DP  RH WIND       PRES   REMARKS
LA CROSSE      CLOUDY    33  28  81 SE7       30.12F WCI  27
PRAIRIE DU CHI CLOUDY    32  30  92 SE6       30.14F FOG     WCI  26
BOSCOBEL       CLOUDY    32  28  85 CALM      30.16F FOG
LONE ROCK      NOT AVBL
PLATTEVILLE    CLOUDY    31  30  94 CALM      30.15F
FORT MC COY    CLOUDY    31  27  87 S7        30.15F FOG     WCI  24
VIROQUA        CLOUDY    29  29 100 SE7       30.11F WCI  22
WIS DELLS      NOT AVBL
$$

...ELSEWHERE IN WISCONSIN...


CITY           SKY/WX    TMP DP  RH WIND       PRES   REMARKS
MILWAUKEE      CLOUDY    32  25  75 S6        30.22F WCI  26
MADISON        CLOUDY    30  26  85 S8        30.18S WCI  22
GREEN BAY      CLOUDY    30  27  88 S5        30.20S FOG     WCI  25
EAU CLAIRE     NOT AVBL
BLACK RVR FLS  CLOUDY    31  28  86 CALM      30.14F FOG
MEDFORD        CLOUDY    28  26  95 S7        30.10F FOG     WCI  20
WAUSAU         CLOUDY    28  25  88 S6        30.12F WCI  22
WIS RAPIDS     CLOUDY    29  25  85 S5        30.16F WCI  24
MARSHFIELD     CLOUDY    29  26  89 S7        30.12F FOG     WCI  22
RICE LAKE      CLOUDY    30  29  93 S6        30.09F FOG     WCI  24
$$

...NORTHEAST IOWA...


CITY           SKY/WX    TMP DP  RH WIND       PRES   REMARKS
DECORAH        FOG       30  30 100 S8        30.10F VSB 1/2 WCI  23
MASON CITY     CLOUDY    32  32 100 S10       30.06F FOG     WCI  24
CHARLES CITY   FOG       32  32 100 S10       30.09S VSB<1/4 WCI  24
OELWEIN        FOG       32  32 100 S12       30.11F VSB<1/4 WCI  23
$$

...ELSEWHERE IN IOWA...


CITY           SKY/WX    TMP DP  RH WIND       PRES   REMARKS
DES MOINES     CLOUDY    38  36  92 S9        30.08F FOG     WCI  31
IOWA CITY      CLOUDY    34  34 100 SE7       30.16S FOG     WCI  28
FORT DODGE     CLOUDY    34  30  86 S8        30.04F WCI  27
$$

...NORTHERN ILLINOIS...


CITY           SKY/WX    TMP DP  RH WIND       PRES   REMARKS
CHICAGO-OHARE  CLOUDY    32  26  78 S6        30.23F WCI  26
CHICAGO-MIDWAY CLOUDY    34  27  75 S6        30.24F WCI  29
MOLINE         CLOUDY    34  31  88 S9        30.17F FOG     WCI  27
ROCKFORD       DRIZZLE   32  28  85 S8        30.22S WCI  25
PEORIA         CLOUDY    36  29  75 S8        30.22F WCI  30
$$

NOTE: "FAIR" INDICATES FEW OR NO CLOUDS BELOW 12,000 FEET WITH NO
SIGNIFICANT WEATHER AND/OR OBSTRUCTIONS TO VISIBILITY. WIND
SPEEDS ARE IN MILES-PER-HOUR.



USA.gov is the U.S. government's official web portal to all federal, state and local government web resources and services.